Regional Weather Roundup
Issued by NWS Bismarck, ND

Home | Current Version | Previous Version | Text Only | Print | Product List | Glossary On
Versions: 1 2 3 4 5 6 7 8 9 10 11 12 13 14 15 16 17 18 19 20 21 22 23 24 25 26 27 28 29 30 31 32 33 34 35 36 37 38 39 40 41 42 43 44 45 46 47 48 49 50
000
ASUS43 KBIS 171620
RWRBIS

NWR BROADCAST TEXT
NATIONAL WEATHER SERVICE BISMARCK ND
1100 AM CDT THU APR 17 2014

NOTE: "FAIR" INDICATES FEW OR NO CLOUDS BELOW 12,000 FEET WITH NO
SIGNIFICANT WEATHER AND/OR OBSTRUCTIONS TO VISIBILITY.


CITY           SKY/WX    TMP DP  RH WIND       PRES   REMARKS
WILLISTON      CLOUDY    32  24  72 SE18      30.18F
MINOT          CLOUDY    30  14  51 SE7       30.29S
MINOT AFB      CLOUDY    29  16  59 SE10      30.29S WCI  19
BISMARCK       CLOUDY    32  15  49 S9        30.30F
DICKINSON      PTSUNNY   35  22  58 S21G28    30.15S
GARRISON         N/A     31  15  52 SE10      30.27S
HETTINGER ARPT LGT SNOW  30  27  88 SE17      30.17F FOG     WCI  18
JAMESTOWN      SUNNY     34  15  46 E5        30.31F
CARRINGTON     FAIR      32  10  40 SE10      30.32F
CROSBY         CLOUDY    30  18  59 S23G29    30.19F WCI  17
HARVEY         FAIR      32  12  43 SE9       30.31S
HAZEN          CLOUDY    32  12  43 SE12G20   30.27S
LINTON         FAIR      36  18  48 MISG      30.29F
MANDAN         CLOUDY    30  16  55 SE10      30.29S
OAKES          FAIR      36  14  41 NE5       30.32S
RUGBY          FAIR      30  14  51 SE3       30.32S
STANLEY        CLOUDY    28  18  64 SE15      30.22F WCI  17
TIOGA          CLOUDY    27  19  74 SE16G22   30.23F WCI  14
WATFORD CITY   CLOUDY    32  18  55 SE17      30.16S
$$

CITY           SKY/WX    TMP DP  RH WIND       PRES   REMARKS
GRAND FORKS    SUNNY     34  18  52 N7        30.37S
GRAND FORKS AF SUNNY     33  18  53 N7        30.37S
DEVILS LAKE    SUNNY     34  10  37 SE8       30.33S
FARGO          SUNNY     36  20  52 NW7       30.34F
CANDO          FAIR      32  10  40 S7        30.34S
CAVALIER       FAIR      32  16  51 NW5       30.38S
GRAFTON        FAIR      32  16  51 N7        30.38S
GWINNER        SUNNY     37  12  35 N6        30.33F
LANGDON        FAIR      36   3  25 E8        30.33S
ROLLA          FAIR      28  10  47 SE8       30.32S
WALHALLA         N/A     28  14  54 N6        30.39S
$$

CITY           SKY/WX    TMP DP  RH WIND       PRES   REMARKS
ABERDEEN       MOSUNNY   34  21  59 CALM      30.34R
MOBRIDGE       CLOUDY    34  17  50 SE9       30.27S
BUFFALO          N/A     31  28  89 SE18      30.05F WCI  19
RAPID CITY     CLOUDY    38  29  70 S21       30.13S
GLASGOW        CLOUDY    34  25  69 SE16      30.03F
SIDNEY         CLOUDY    39  25  56 SE17      30.15F
WOLF POINT     CLOUDY    40  25  55 SE10      30.09F
GLENDIVE       CLOUDY    39  27  60 SE10      30.09F
MILES CITY     SUNNY     44  33  65 S10       30.02F
BAKER          CLOUDY    34  28  79 SE23      30.08F
$$

CITY           SKY/WX    TMP DP  RH WIND       PRES   REMARKS
BILLINGS       PTSUNNY   42  33  70 VRB6      29.97F
GREAT FALLS    CLOUDY    47  31  53 SW16      29.86S
REGINA         CLOUDY    30  16  55 SE25G31   30.18F WCI  16
ESTEVAN        CLOUDY    32  18  55 SE17      30.22F
$$




USA.gov is the U.S. government's official web portal to all federal, state and local government web resources and services.